Location: Dal�� Lhota
(48.7500°N, 14.0167°E)
Time: 01:26:22
(UTC+00:00)

Vanguard 3 - Pass Details

Date: 06 August 2021
Orbit: 510 x 3260 km, 33.3° (Epoch: 16 September)

Event Time Altitude Azimuth Distance (km) Brightness Sun altitude
Rises 18:26:10 0° 259° (W) 5,663 12.5 0.4°
Reaches altitude 10° 18:29:38 10° 253° (WSW) 4,980 12.0 -0.1°
Maximum altitude 18:43:59 45° 188° (S) 3,769 10.4 -2.3°
Drops below altitude 10° 19:02:01 10° 125° (SE) 6,148 10.9 -4.8°
Enters shadow 19:04:12 - 122° (ESE) 6,544 11.0 -5.1°
Sets 19:06:55 0° 120° (ESE) 7,044 - -5.5°
